Regional Weather Roundup
Issued by NWS

Home | Current Version | Previous Version | Graphics & Text | Print | Product List | Glossary On
Versions: 1 2 3 4 5 6 7 8 9 10 11 12 13 14 15 16 17 18 19 20 21 22 23 24 25 26 27 28 29 30 31 32 33 34 35 36 37 38 39 40 41 42 43 44 45 46 47 48 49 50
000
ASUS45 KPSR 212100
RWRAZ

PRELIMINARY ARIZONA REGIONAL HOURLY WEATHER ROUNDUP
NATIONAL WEATHER SERVICE PHOENIX AZ
200 PM MST SUN DEC 21 2014

NOTE: FAIR INDICATES FEW OR NO CLOUDS BELOW 12,000 FEET WITH NO
SIGNIFICANT WEATHER AND/OR OBSTRUCTIONS TO VISIBILITY.

AZZ001>003-036-212200-
NORTHWEST ARIZONA

CITY           SKY/WX    TMP DP  RH WIND       PRES   REMARKS
KINGMAN        CLOUDY    53  37  54 NE5       30.11F
$$

AZZ004>008-015-016-018-212200-
NORTH CENTRAL ARIZONA

CITY           SKY/WX    TMP DP  RH WIND       PRES   REMARKS
GRAND CANYON   PTSUNNY   47  33  58 NW10G21   30.10F
PRESCOTT       MOSUNNY   59  32  36 NW10      30.08F
FLAGSTAFF      NOT AVBL
PAYSON         SUNNY     54  32  43 W10       30.09F
PAGE           MOSUNNY   45  30  55 NE7       30.01F
$$

AZZ009>014-017-212200-
NORTHEAST ARIZONA

CITY           SKY/WX    TMP DP  RH WIND       PRES   REMARKS
WINSLOW        NOT AVBL
SAINT JOHNS    PTSUNNY   49  29  46 W6        30.03F
WINDOW ROCK    PTSUNNY   47  28  47 W13       30.02F
$$

AZZ023-212200-
GREATER PHOENIX AREA

CITY           SKY/WX    TMP DP  RH WIND       PRES   REMARKS
PHOENIX        MOSUNNY   64  40  41 VRB3      30.04F
GLENDALE       MOSUNNY   63  39  42 VRB5      30.07F
LUKE AFB       MOSUNNY   62  41  45 CALM      30.04F
DEER VALLEY    SUNNY     60  38  43 VRB5      30.04F
SCOTTSDALE     SUNNY     60  38  43 VRB3      30.05F
MESA-FALCON    MOSUNNY   61  37  41 CALM      30.05F
MESA-GATEWAY   MOSUNNY   61  39  44 SW3       30.07F
CHANDLER       MOSUNNY   61  41  48 VRB5      30.06F
$$

AZZ027-028-212200-
SOUTHWEST MARICOPA COUNTY AND PINAL COUNTY

CITY           SKY/WX    TMP DP  RH WIND       PRES   REMARKS
CASA GRANDE    SUNNY     61  37  41 MISG      30.05F
GILA BEND      FAIR      64  41  42 VRB3      30.07F
$$

AZZ503-504-507>509-212200-
SOUTHEAST ARIZONA

CITY           SKY/WX    TMP DP  RH WIND       PRES   REMARKS
TUCSON         SUNNY     61  33  35 N7        30.08R
DAVIS-MONTHAN  SUNNY     59  31  34 N6        30.05R
RYAN FIELD       N/A     64  39  39 N7        30.08S
NOGALES        SUNNY     64  33  31 NW6       30.03F
SIERRA VISTA   SUNNY     60  28  29 NE9       30.06F
SAFFORD        SUNNY     55  37  50 W7        30.02F
$$

AZZ020-021-025-026-031-212200-
SOUTHWEST ARIZONA

CITY           SKY/WX    TMP DP  RH WIND       PRES   REMARKS
YUMA           NOT AVBL
$$

CAZ031-033-041-043-047-048-061-212200-
SOUTHERN CALIFORNIA

CITY           SKY/WX    TMP DP  RH WIND       PRES   REMARKS
DOWNTOWN L.A.  SUNNY     67  50  54 CALM      30.07F
L.A. AIRPORT   PTSUNNY   64  52  64 W3        30.08F
SAN DIEGO      PTSUNNY   67  52  58 W8        30.09F
BURBANK        SUNNY     66  48  52 SE6       30.06F
ONTARIO        PTSUNNY   62  48  60 CALM      30.07F
RIVERSIDE      MOSUNNY   64  49  57 CALM      30.08F
PALM SPRINGS   PTSUNNY   67  44  43 E5        30.07F
EL CENTRO NAS  PTSUNNY   68  47  46 N6        30.05F
IMPERIAL       PTSUNNY   68  47  46 VRB5      30.05F
BLYTHE         CLOUDY    59  43  55 CALM      30.08F
$$

NVZ020-UTZ003-212200-
SOUTHERN NEVADA-UTAH

CITY           SKY/WX    TMP DP  RH WIND       PRES   REMARKS
LAS VEGAS      NOT AVBL
SALT LAKE CITY CLOUDY    43  39  86 S15       29.92F
$$

NMZ009-TXZ055-212200-
NEW MEXICO-WEST TEXAS

CITY           SKY/WX    TMP DP  RH WIND       PRES   REMARKS
ALBUQUERQUE    PTSUNNY   48  27  44 N5        29.93F
EL PASO        PTSUNNY   61  26  26 NW6G16    29.94F
$$


........................KEY........................
SKY/WX - SKY CONDITION/WEATHER
TMP    - TEMPERATURE IN FAHRENHEIT
DP     - DEW POINT IN FAHRENHEIT
RH     - RELATIVE HUMIDITY IN PERCENT
WIND   - DIRECTION AND SPEED IN MILES PER HOUR (MPH)
VRB    - VARIABLE WIND DIRECTION
PRES   - MEAN SEA LEVEL PRESSURE IN INCHES OF MERCURY
         F - FALLING PRESSURE   R - RISING PRESSURE
         S - STEADY PRESSURE
VSB    - VISIBILITY IN MILES
HX     - HEAT INDEX IN FAHRENHEIT
WCI    - WIND CHILL INDEX IN FAHRENHEIT
TC     - TEMPERATURE IN CELSIUS WHICH IS ALSO KNOWN AS
         TEMPERATURE IN CENTIGRADE
AFB    - AIR FORCE BASE
         LUKE AFB IS LUKE AIR FORCE BASE
         DAVIS-MONTHAN IS DAVIS-MONTHAN AIR FORCE BASE
NAS    - NAVAL AIR STATION
         EL CENTRO NAS IS EL CENTRO NAVAL AIR STATION
N/A    - NOT AVAILABLE



USA.gov is the U.S. government's official web portal to all federal, state and local government web resources and services.